カタログに戻る

ARIANE 5 R/B

運用中HEO
NORAD 37266·ROCKET BODY·🇫🇷 France

打ち上げ Dec 29, 2010 から Guiana Space Centre

Loading…

次のパス (今後24時間)

TLE

最新Source: Space-Track

元期: Sep 14, 2026, 10:24 UTC

1 37266U 10070C   26257.43381879  .00000944  00000-0  36805-3 0  9999
2 37266   3.2690 178.3138 7037728 263.5452  19.2038  2.58126522139210

AllMySatでARIANE 5 R/Bをリアルタイム追跡

Download on the App Store